Location: Isola Pescaroli
(45.0500°N, 10.1667°E)
Time: 08:51:05
(UTC+00:00)

Meteor 1-25 Rocket - Pass Details

Date: 03 March 2021
Orbit: 835 x 893 km, 81.2° (Epoch: 19 April)

Event Time Altitude Azimuth Distance (km) Brightness Sun altitude
Rises 17:29:17 0° 178° (S) 3,473 7.4 -4.3°
Reaches altitude 10° 17:31:46 10° 175° (S) 2,532 6.7 -4.7°
Maximum altitude 17:37:25 61° 96° (E) 986 4.3 -5.7°
Drops below altitude 10° 17:43:02 10° 17° (NNE) 2,512 6.5 -6.7°
Sets 17:45:29 0° 14° (NNE) 3,445 7.2 -7.1°
